| time (UTC) | temp F | wind direction | speed MPH | gust MPH | rain 1hr in | rain 24hr in | rain mn in | humidity % | barometer mb |
| 20260905080020 | 51 | 280 | 0.0 | 0.0 | 0.00 | 0.00 | 0.00 | 61 | 1026.2 |
| 20260905075024 | 52 | 280 | 1.0 | 0.0 | 0.00 | 0.00 | 0.00 | 61 | 1026.2 |
| 20260905074020 | 53 | 280 | 0.0 | 0.0 | 0.00 | 0.00 | 0.00 | 59 | 1026.2 |
| 20260905073039 | 54 | 280 | 0.0 | 0.0 | 0.00 | 0.00 | 0.00 | 56 | 1026.3 |
| 20260905072020 | 55 | 280 | 0.0 | 0.0 | 0.00 | 0.00 | 0.00 | 55 | 1026.3 |
| 20260905071037 | 55 | 280 | 0.0 | 0.0 | 0.00 | 0.00 | 0.00 | 54 | 1026.1 |
| 20260905070033 | 56 | 280 | 0.0 | 0.0 | 0.00 | 0.00 | 0.00 | 53 | 1025.9 |
| 20260905063022 | 56 | 280 | 0.0 | 0.0 | 0.00 | 0.00 | 0.00 | 52 | 1026.0 |
| 20260905062037 | 56 | 280 | 0.0 | 0.0 | 0.00 | 0.00 | 0.00 | 53 | 1026.0 |
| 20260905061036 | 56 | 280 | 0.0 | 0.0 | 0.00 | 0.00 | 0.00 | 53 | 1026.1 |
| 20260905060033 | 57 | 280 | 0.0 | 0.0 | 0.00 | 0.00 | 0.00 | 53 | 1026.1 |
| 20260905055036 | 57 | 280 | 0.0 | 0.0 | 0.00 | 0.00 | 0.00 | 52 | 1026.0 |
| 20260905054033 | 57 | 280 | 0.0 | 0.0 | 0.00 | 0.00 | 0.00 | 52 | 1025.8 |
| 20260905053029 | 56 | 280 | 0.0 | 0.0 | 0.00 | 0.00 | 0.00 | 53 | 1025.8 |
| 20260905052026 | 57 | 280 | 0.0 | 0.0 | 0.00 | 0.00 | 0.00 | 53 | 1026.0 |
| 20260905051026 | 56 | 280 | 0.0 | 0.0 | 0.00 | 0.00 | 0.00 | 54 | 1026.1 |
| 20260905050027 | 55 | 280 | 0.0 | 0.0 | 0.00 | 0.00 | 0.00 | 55 | 1026.0 |
| 20260905045023 | 54 | 280 | 0.0 | 0.0 | 0.00 | 0.00 | 0.00 | 57 | 1026.1 |
| 20260905044039 | 53 | 280 | 0.0 | 0.0 | 0.00 | 0.00 | 0.00 | 59 | 1026.2 |
| 20260905043035 | 53 | 280 | 0.0 | 0.0 | 0.00 | 0.00 | 0.00 | 60 | 1026.1 |
| 20260905041035 | 55 | 280 | 0.0 | 0.0 | 0.00 | 0.00 | 0.00 | 57 | 1026.1 |
| 20260905040034 | 56 | 280 | 0.0 | 0.0 | 0.00 | 0.00 | 0.00 | 55 | 1026.1 |
| 20260905035028 | 57 | 280 | 1.0 | 0.0 | 0.00 | 0.00 | 0.00 | 54 | 1026.1 |
| 20260905034026 | 56 | 280 | 2.0 | 0.0 | 0.00 | 0.00 | 0.00 | 54 | 1026.1 |
| 20260905032025 | 56 | 280 | 1.0 | 0.0 | 0.00 | 0.00 | 0.00 | 54 | 1025.9 |
| 20260905030022 | 59 | 280 | 0.0 | 0.0 | 0.00 | 0.00 | 0.00 | 51 | 1025.9 |
| 20260905024023 | 60 | 280 | 0.0 | 0.0 | 0.00 | 0.00 | 0.00 | 49 | 1025.7 |
| 20260905023041 | 60 | 280 | 0.0 | 0.0 | 0.00 | 0.00 | 0.00 | 48 | 1025.6 |
| 20260905022037 | 61 | 280 | 0.0 | 0.0 | 0.00 | 0.00 | 0.00 | 47 | 1025.4 |
| 20260905021034 | 62 | 280 | 0.0 | 0.0 | 0.00 | 0.00 | 0.00 | 45 | 1025.0 |
| 20260905020034 | 62 | 280 | 0.0 | 0.0 | 0.00 | 0.00 | 0.00 | 45 | 1024.9 |
| 20260905014036 | 65 | 280 | 0.0 | 0.0 | 0.00 | 0.00 | 0.00 | 40 | 1024.7 |
| 20260905011026 | 68 | 280 | 0.0 | 0.0 | 0.00 | 0.00 | 0.00 | 37 | 1024.4 |
| 20260905010027 | 69 | 211 | 0.0 | 0.0 | 0.00 | 0.00 | 0.00 | 37 | 1024.4 |
| 20260905005022 | 69 | 252 | 0.0 | 0.0 | 0.00 | 0.00 | 0.00 | 36 | 1024.3 |
| 20260905004022 | 70 | 250 | 0.0 | 0.0 | 0.00 | 0.00 | 0.00 | 35 | 1024.3 |
| 20260905003039 | 71 | 203 | 1.0 | 0.0 | 0.00 | 0.00 | 0.00 | 35 | 1024.3 |
| 20260905002036 | 71 | 194 | 1.0 | 0.0 | 0.00 | 0.00 | 0.00 | 33 | 1024.2 |
| 20260905001035 | 71 | 219 | 1.0 | 0.0 | 0.00 | 0.00 | 0.00 | 33 | 1024.3 |
| 20260904235032 | 73 | 227 | 1.0 | 0.0 | 0.00 | 0.00 | 0.00 | 32 | 1024.3 |
| 20260904234034 | 73 | 190 | 1.0 | 0.0 | 0.00 | 0.00 | 0.00 | 32 | 1024.3 |
| 20260904232038 | 74 | 225 | 0.0 | 0.0 | 0.00 | 0.00 | 0.00 | 31 | 1024.4 |
| 20260904231034 | 74 | 187 | 1.0 | 0.0 | 0.00 | 0.00 | 0.00 | 30 | 1024.5 |
| 20260904225028 | 75 | 130 | 1.0 | 0.0 | 0.00 | 0.00 | 0.00 | 32 | 1024.4 |
| 20260904223033 | 76 | 132 | 1.0 | 0.0 | 0.00 | 0.00 | 0.00 | 30 | 1024.5 |
| 20260904222030 | 77 | 259 | 0.0 | 0.0 | 0.00 | 0.00 | 0.00 | 31 | 1024.4 |
| 20260904221030 | 76 | 207 | 1.0 | 0.0 | 0.00 | 0.00 | 0.00 | 30 | 1024.5 |
| 20260904215026 | 76 | 218 | 1.0 | 0.0 | 0.00 | 0.00 | 0.00 | 30 | 1024.7 |
| 20260904214027 | 76 | 213 | 2.0 | 0.0 | 0.00 | 0.00 | 0.00 | 30 | 1024.8 |
| 20260904213027 | 76 | 126 | 0.0 | 0.0 | 0.00 | 0.00 | 0.00 | 31 | 1024.8 |
| 20260904212026 | 75 | 186 | 1.0 | 0.0 | 0.00 | 0.00 | 0.00 | 31 | 1024.7 |
| 20260904211022 | 75 | 266 | 2.0 | 0.0 | 0.00 | 0.00 | 0.00 | 35 | 1024.8 |
| 20260904210023 | 75 | 272 | 2.0 | 0.0 | 0.00 | 0.00 | 0.00 | 35 | 1024.9 |
| 20260904205039 | 76 | 142 | 1.0 | 0.0 | 0.00 | 0.00 | 0.00 | 33 | 1024.8 |
| 20260904204036 | 76 | 168 | 2.0 | 0.0 | 0.00 | 0.00 | 0.00 | 35 | 1024.8 |
| 20260904203032 | 76 | 223 | 2.0 | 0.0 | 0.00 | 0.00 | 0.00 | 34 | 1025.1 |
| 20260904202029 | 74 | 254 | 1.0 | 0.0 | 0.00 | 0.00 | 0.00 | 34 | 1025.0 |
| 20260904201029 | 73 | 161 | 1.0 | 0.0 | 0.00 | 0.00 | 0.00 | 35 | 1025.4 |
| 20260904200025 | 74 | 159 | 1.0 | 0.0 | 0.00 | 0.00 | 0.00 | 35 | 1025.4 |
| 20260904195024 | 73 | 288 | 2.0 | 0.0 | 0.00 | 0.00 | 0.00 | 35 | 1025.5 |
| 20260904194041 | 74 | 252 | 2.0 | 0.0 | 0.00 | 0.00 | 0.00 | 36 | 1025.5 |
| 20260904193039 | 74 | 269 | 2.0 | 0.0 | 0.00 | 0.00 | 0.00 | 35 | 1025.5 |
| 20260904192038 | 73 | 98 | 1.0 | 0.0 | 0.00 | 0.00 | 0.00 | 36 | 1025.5 |
| 20260904191032 | 73 | 315 | 1.0 | 0.0 | 0.00 | 0.00 | 0.00 | 37 | 1025.7 |
| 20260904190028 | 73 | 281 | 2.0 | 0.0 | 0.00 | 0.00 | 0.00 | 38 | 1025.8 |
| 20260904184026 | 72 | 252 | 2.0 | 0.0 | 0.00 | 0.00 | 0.00 | 38 | 1026.2 |
| 20260904183022 | 72 | 227 | 2.0 | 0.0 | 0.00 | 0.00 | 0.00 | 39 | 1026.4 |
| 20260904182021 | 72 | 175 | 1.0 | 0.0 | 0.00 | 0.00 | 0.00 | 39 | 1026.6 |
| 20260904181036 | 72 | 331 | 1.0 | 0.0 | 0.00 | 0.00 | 0.00 | 41 | 1026.8 |
| 20260904180035 | 72 | 102 | 1.0 | 0.0 | 0.00 | 0.00 | 0.00 | 41 | 1026.9 |
| 20260904175038 | 71 | 210 | 1.0 | 0.0 | 0.00 | 0.00 | 0.00 | 41 | 1026.7 |
| 20260904174035 | 70 | 261 | 2.0 | 0.0 | 0.00 | 0.00 | 0.00 | 45 | 1026.9 |
| 20260904173039 | 70 | 130 | 2.0 | 0.0 | 0.00 | 0.00 | 0.00 | 44 | 1026.3 |
| 20260904172036 | 69 | 132 | 1.0 | 0.0 | 0.00 | 0.00 | 0.00 | 46 | 1026.2 |
| 20260904171039 | 69 | 214 | 2.0 | 0.0 | 0.00 | 0.00 | 0.00 | 46 | 1026.2 |
| 20260904170034 | 69 | 194 | 2.0 | 0.0 | 0.00 | 0.00 | 0.00 | 45 | 1026.0 |
| 20260904165035 | 69 | 234 | 2.0 | 0.0 | 0.00 | 0.00 | 0.00 | 47 | 1026.0 |
| 20260904164031 | 69 | 86 | 1.0 | 0.0 | 0.00 | 0.00 | 0.00 | 48 | 1026.1 |
| 20260904163031 | 66 | 337 | 0.0 | 0.0 | 0.00 | 0.00 | 0.00 | 49 | 1026.2 |
| 20260904162027 | 64 | 97 | 3.0 | 0.0 | 0.00 | 0.00 | 0.00 | 50 | 1026.3 |
| 20260904161025 | 63 | 65 | 0.0 | 0.0 | 0.00 | 0.00 | 0.00 | 48 | 1026.4 |
| 20260904160021 | 61 | 82 | 1.0 | 0.0 | 0.00 | 0.00 | 0.00 | 50 | 1026.6 |
| 20260904155038 | 60 | 29 | 0.0 | 0.0 | 0.00 | 0.00 | 0.00 | 48 | 1026.8 |
| 20260904154038 | 59 | 84 | 0.0 | 0.0 | 0.00 | 0.00 | 0.00 | 50 | 1026.8 |
| 20260904153035 | 59 | 15 | 0.0 | 0.0 | 0.00 | 0.00 | 0.00 | 49 | 1026.7 |
| 20260904151031 | 57 | 14 | 0.0 | 0.0 | 0.00 | 0.00 | 0.00 | 52 | 1027.1 |
| 20260904150027 | 56 | 11 | 0.0 | 0.0 | 0.00 | 0.00 | 0.00 | 54 | 1026.5 |
| 20260904145027 | 55 | 360 | 0.0 | 0.0 | 0.00 | 0.00 | 0.00 | 54 | 1026.4 |
| 20260904144021 | 54 | 360 | 0.0 | 0.0 | 0.00 | 0.00 | 0.00 | 57 | 1026.5 |
| 20260904143022 | 53 | 350 | 0.0 | 0.0 | 0.00 | 0.00 | 0.00 | 58 | 1026.5 |
| 20260904142022 | 53 | 153 | 0.0 | 0.0 | 0.00 | 0.00 | 0.00 | 58 | 1026.4 |
| 20260904141023 | 53 | 153 | 0.0 | 0.0 | 0.00 | 0.00 | 0.00 | 59 | 1026.1 |
| 20260904140020 | 53 | 155 | 0.0 | 0.0 | 0.00 | 0.00 | 0.00 | 59 | 1026.0 |
| 20260904135023 | 54 | 161 | 0.0 | 0.0 | 0.00 | 0.00 | 0.00 | 58 | 1025.9 |
| 20260904133037 | 48 | 215 | 0.0 | 0.0 | 0.00 | 0.00 | 0.00 | 70 | 1025.8 |
| 20260904132037 | 46 | 215 | 0.0 | 0.0 | 0.00 | 0.00 | 0.00 | 74 | 1025.4 |
| 20260904131036 | 44 | 215 | 0.0 | 0.0 | 0.00 | 0.00 | 0.00 | 76 | 1025.5 |
| 20260904130031 | 43 | 215 | 0.0 | 0.0 | 0.00 | 0.00 | 0.00 | 77 | 1025.5 |
| 20260904125028 | 41 | 215 | 0.0 | 0.0 | 0.00 | 0.00 | 0.00 | 77 | 1025.4 |
| 20260904124032 | 42 | 215 | 0.0 | 0.0 | 0.00 | 0.00 | 0.00 | 77 | 1025.4 |
| 20260904123029 | 42 | 215 | 0.0 | 0.0 | 0.00 | 0.00 | 0.00 | 76 | 1025.2 |
| 20260904122029 | 42 | 215 | 0.0 | 0.0 | 0.00 | 0.00 | 0.00 | 76 | 1025.0 |
| 20260904121026 | 42 | 215 | 0.0 | 0.0 | 0.00 | 0.00 | 0.00 | 75 | 1024.9 |
| 20260904120028 | 42 | 215 | 3.0 | 0.0 | 0.00 | 0.00 | 0.00 | 76 | 1024.8 |
| 20260904115029 | 42 | 215 | 4.0 | 0.0 | 0.00 | 0.00 | 0.00 | 75 | 1024.7 |
| 20260904114026 | 43 | 215 | 4.0 | 0.0 | 0.00 | 0.00 | 0.00 | 74 | 1024.6 |
| 20260904113023 | 43 | 215 | 3.0 | 0.0 | 0.00 | 0.00 | 0.00 | 74 | 1024.5 |
| 20260904112038 | 43 | 215 | 0.0 | 0.0 | 0.00 | 0.00 | 0.00 | 74 | 1024.4 |
| 20260904111018 | 43 | 215 | 0.0 | 0.0 | 0.00 | 0.00 | 0.00 | 74 | 1024.4 |
| 20260904110019 | 43 | 215 | 0.0 | 0.0 | 0.00 | 0.00 | 0.00 | 72 | 1024.9 |
| 20260904105017 | 43 | 215 | 0.0 | 0.0 | 0.00 | 0.00 | 0.00 | 72 | 1024.9 |
| 20260904104036 | 45 | 215 | 0.0 | 0.0 | 0.00 | 0.00 | 0.00 | 71 | 1024.8 |
| 20260904103015 | 45 | 215 | 0.0 | 0.0 | 0.00 | 0.00 | 0.00 | 69 | 1024.6 |
| 20260904102036 | 45 | 215 | 0.0 | 0.0 | 0.00 | 0.00 | 0.00 | 68 | 1024.6 |
| 20260904101034 | 46 | 215 | 2.0 | 0.0 | 0.00 | 0.00 | 0.00 | 68 | 1024.6 |
| 20260904095033 | 46 | 215 | 0.0 | 0.0 | 0.00 | 0.00 | 0.00 | 67 | 1024.6 |
| 20260904094030 | 46 | 215 | 1.0 | 0.0 | 0.00 | 0.00 | 0.00 | 66 | 1024.5 |
| 20260904093031 | 46 | 215 | 2.0 | 0.0 | 0.00 | 0.00 | 0.00 | 65 | 1024.4 |
| 20260904092026 | 47 | 215 | 2.0 | 0.0 | 0.00 | 0.00 | 0.00 | 63 | 1024.4 |
| 20260904091026 | 48 | 215 | 0.0 | 0.0 | 0.00 | 0.00 | 0.00 | 61 | 1024.3 |
| 20260904090023 | 48 | 215 | 0.0 | 0.0 | 0.00 | 0.00 | 0.00 | 60 | 1024.2 |
| 20260904085022 | 48 | 215 | 0.0 | 0.0 | 0.00 | 0.00 | 0.00 | 60 | 1024.3 |
| 20260904084038 | 48 | 215 | 0.0 | 0.0 | 0.00 | 0.00 | 0.00 | 60 | 1024.2 |
| 20260904083022 | 49 | 215 | 0.0 | 0.0 | 0.00 | 0.00 | 0.00 | 58 | 1024.3 |
| 20260904082020 | 49 | 215 | 0.0 | 0.0 | 0.00 | 0.00 | 0.00 | 58 | 1024.2 |
| 20260904081036 | 49 | 215 | 0.0 | 0.0 | 0.00 | 0.00 | 0.00 | 58 | 1024.1 |